CST,Max TemperatureF,Mean TemperatureF,Min TemperatureF,Max Dew PointF,MeanDew PointF,Min DewpointF,Max Humidity, Mean Humidity, Min Humidity, Max Sea Level PressureIn, Mean Sea Level PressureIn, Min Sea Level PressureIn, Max VisibilityMiles, Mean VisibilityMiles, Min VisibilityMiles, Max Wind SpeedMPH, Mean Wind SpeedMPH, Max Gust SpeedMPH,PrecipitationIn, CloudCover, Events, WindDirDegrees
2011-11-1,53,46,38,37,35,33,85,68,50,30.00,29.95,29.88,10,10,10,13,4,16,0.00,4,,132
2011-11-2,49,44,38,40,34,29,76,66,56,30.22,30.13,30.01,10,10,10,13,6,16,T,5,,358
2011-11-3,52,39,25,29,26,21,92,61,30,30.32,30.25,30.22,10,10,8,9,3,13,0.00,0,,12
2011-11-4,53,36,19,32,23,17,100,66,32,30.34,30.26,30.14,10,6,0,17,6,20,0.00,0,Fog,159
2011-11-5,57,46,34,42,36,30,82,67,51,30.14,29.99,29.81,10,10,8,22,12,29,0.00,1,,155
2011-11-6,58,50,41,45,39,25,80,65,49,29.99,29.77,29.66,10,9,8,30,13,38,0.00,4,,193
2011-11-7,51,43,35,28,23,21,70,50,30,30.24,30.14,30.01,10,10,10,18,7,23,0.00,0,,243
2011-11-8,47,41,34,28,27,24,75,62,49,30.22,30.17,30.11,10,10,10,10,5,14,0.00,3,,22
2011-11-9,45,40,35,30,26,23,76,59,41,30.08,29.97,29.90,10,10,10,21,10,29,T,6,,332
2011-11-10,38,34,29,30,28,21,92,77,61,30.02,29.95,29.88,10,8,2,18,10,24,0.02,8,Snow,287
2011-11-11,49,37,24,28,24,20,82,60,37,29.98,29.76,29.61,10,10,10,21,8,28,0.00,3,,190
2011-11-12,61,42,23,36,28,21,100,65,29,29.62,29.52,29.26,10,7,0,20,6,26,0.00,0,Fog,173
2011-11-13,50,43,35,38,34,30,82,67,52,29.51,29.31,29.19,10,10,10,17,8,22,T,5,Rain,223
2011-11-14,56,43,30,36,29,21,89,62,35,29.65,29.51,29.41,10,10,10,22,8,28,0.00,2,,216
2011-11-15,55,41,26,36,26,22,85,71,60,29.65,29.60,29.56,10,10,10,26,12,37,0.00,6,,130
2011-11-16,38,30,22,15,12,10,59,48,37,30.12,30.08,30.03,10,10,10,23,13,33,0.00,4,,273
2011-11-17,30,25,19,13,10,6,65,52,39,30.18,30.11,29.97,10,10,10,16,8,22,0.00,3,,247
2011-11-18,49,38,27,26,23,12,75,60,45,29.93,29.75,29.66,10,10,10,22,9,26,0.00,2,,179
2011-11-19,37,32,26,34,29,23,96,86,75,30.06,29.79,29.67,10,6,1,17,7,24,0.13,7,Rain-Snow,16
2011-11-20,27,25,22,22,20,18,88,82,75,30.38,30.31,30.13,10,10,10,12,4,16,0.00,8,,305
2011-11-21,36,31,26,31,27,22,92,84,75,30.36,30.30,30.22,10,10,8,9,4,12,0.00,8,,140
2011-11-22,38,35,32,32,30,28,89,83,76,30.27,30.13,30.02,10,8,6,9,4,13,0.00,8,,100
2011-11-23,43,38,32,36,34,32,96,86,76,30.16,30.11,30.06,8,6,3,14,7,18,0.00,5,,205
2011-11-24,57,47,36,42,39,36,100,76,51,30.06,29.90,29.73,10,8,3,17,10,22,0.00,2,,184
2011-11-25,52,47,42,46,42,39,93,78,63,29.75,29.72,29.70,10,8,4,14,8,20,0.02,5,Rain,176
2011-11-26,49,42,35,48,43,27,100,88,75,29.98,29.76,29.68,10,5,0,21,8,28,0.38,8,Fog-Rain,279
2011-11-27,35,32,29,27,23,21,75,69,63,30.21,30.12,29.98,10,10,10,20,9,29,0.00,8,,339
2011-11-28,35,31,27,27,24,21,92,81,69,30.20,30.14,30.06,10,10,10,14,6,17,0.00,5,,215
2011-11-29,37,28,18,25,18,12,81,61,40,30.30,30.22,30.12,10,10,10,15,7,22,0.00,0,,342
2011-11-30,45,30,15,25,17,11,88,61,33,30.10,30.00,29.92,10,10,10,13,3,16,0.00,4,,205